Location: Newark
(45.5000°N, 11.4167°E)
Time: 10:38:41
(UTC+00:00)

Vanguard 3 - Pass Details

Date: 29 August 2019
Orbit: 508 x 3263 km, 33.4° (Epoch: 14 September)

Event Time Altitude Azimuth Distance (km) Brightness Sun altitude
Rises 16:37:42 0° 257° (WSW) 5,234 13.0 13.2°
Reaches altitude 10° 16:42:17 10° 248° (WSW) 3,727 12.1 12.4°
Maximum altitude 16:49:37 29° 193° (SSW) 1,816 9.2 11.1°
Drops below altitude 10° 16:54:22 10° 134° (SE) 2,349 9.1 10.3°
Sets 16:56:36 0° 121° (ESE) 3,052 9.6 9.9°
